Regional Weather Roundup
Issued by NWS

Home | Current Version | Previous Version | Text Only | Print | Product List | Glossary On
Versions: 1 2 3 4 5 6 7 8 9 10 11 12 13 14 15 16 17 18 19 20 21 22 23 24 25 26 27
000
ASUS45 KSLC 250910
RWRUT

UTAH REGIONAL WEATHER ROUNDUP
NATIONAL WEATHER SERVICE SALT LAKE CITY UT
200 AM MST SUN FEB 25 2018

UTZ001>011-023>025-251000-

NORTHERN UTAH

CITY           SKY/WX    TMP DP  RH WIND       PRES   REMARKS
BRIGHAM CITY   CLOUDY    27  20  77 SW6       30.05R WCI  20
HILL AFB       CLOUDY    23  18  82 S7        30.03R WCI  14
LOGAN          MOCLDY    24  18  77 NE6       30.02R WCI  17
OGDEN          CLOUDY    25  18  74 SW8       30.03R WCI  16
SALT LAKE CITY MOCLDY    27  23  85 SE7       30.07R WCI  19
WENDOVER       CLEAR     25  10  53 NW16G26   30.13R WCI  12
HEBER CITY     LGT SNOW  18  14  86 CALM      29.98R
WEST JORDAN    CLOUDY    22  22 100 S6        30.06R WCI  15

$$

UTZ011>015-024>027-251000-

CENTRAL/NORTHEAST UTAH

CITY           SKY/WX    TMP DP  RH WIND       PRES   REMARKS
PROVO AIRPORT  CLOUDY    21  19  93 N5        30.07R FOG     WCI  15
MOAB/CANYONLAN PTCLDY    24  14  65 NW6       29.97R WCI  17
DELTA          CLOUDY    19  18  93 CALM      30.08R
PRICE          CLEAR     13  10  88 N6        29.95R WCI   4
RICHFIELD      MOCLDY    27  21  80 SW6       30.02S WCI  20
VERNAL         PTCLDY     8   0  69 W6        29.96R WCI  -2

$$

UTZ013>016-019>022-027-251000-

SOUTHERN UTAH

CITY           SKY/WX    TMP DP  RH WIND       PRES   REMARKS
BRYCE CANYON   LGT SNOW  16  12  84 W9        29.97R FOG     WCI   4
CEDAR CITY     PTCLDY    19  14  81 SW7       30.04R WCI  10
MILFORD        CLEAR     16  12  84 SW9       30.05R WCI   4
ST GEORGE      PTSUNNY   34  19  54 W6        30.14R WCI  29
HANKSVILLE     PTCLDY    21  10  63 NW5       30.03R WCI  15
KANAB          CLEAR     25  18  74 SE6       30.10S WCI  18
BLANDING         N/A     19  14  81 N5        30.03S WCI  12

$$

REGIONAL REPORTS     COLORADO/ARIZONA

CITY           SKY/WX    TMP DP  RH WIND       PRES   REMARKS
CRAIG, CO      CLOUDY     8   4  83 CALM      29.92S
GRAND JUNCTION CLEAR     22  20  92 E5        29.96S WCI  16
RIFLE, CO      PTCLDY    14   8  77 SE8       29.96R WCI   3
MONTROSE, CO   MOCLDY    23  17  78 S3        29.97S
CORTEZ, CO     CLOUDY    27  12  53 N5        29.96S WCI  22
COLORADO CITY    N/A     25  19  80 CALM      30.10R
PAGE, AZ       PTCLDY    34  16  47 N5        30.04R WCI  30
GRAND CANYON   CLOUDY    22  12  65 CALM      30.04S
KINGMAN, AZ    CLEAR     29   2  31 S9        30.12S WCI  20
FLAGSTAFF, AZ  PTCLDY    10   4  76 CALM      30.03R

$$

REGIONAL REPORTS    NEVADA/IDAHO/WYOMING

CITY           SKY/WX    TMP DP  RH WIND       PRES   REMARKS
LAS VEGAS, NV  CLEAR     44  11  26 W14       30.15R
ELY, NY        CLEAR     11   3  70 NW8       30.13R WCI  -1
ELKO, NV       CLEAR      9   5  84 S8        30.17R WCI  -3
POCATELLO, ID  LGT SNOW  22  18  85 SW22      30.02R FOG     WCI   6
BURLEY, ID     CLEAR     20  14  77 W25G38    30.03R WCI   2
EVANSTON, WY   PTCLDY    11   8  88 SW12      29.88R WCI  -3
ROCK SPRINGS,  CLEAR     12   5  73 W20       29.86R WCI  -6

$$




USA.gov is the U.S. government's official web portal to all federal, state and local government web resources and services.